Information on these data can be found in provided Readme document
Contact Info: Zachary Fasnacht (zachary.fasnacht@ssaihq.com); Nickolay Krotkov (nickolay.a.krotkov@nasa.gov); Lok Lamsal (lok.lamsal@nasa.gov)

FillValue: -999.
ScaleFactor: 1e15
Units: molecules/cm^2

Date(yyyy-mm-dd),City,Country,LonCenter,LatCenter,BoundingCoordinates,Median,Q1,Q3,Mean,Baseline_Median,Baseline_Q1,Baseline_Q3,Baseline_Mean,NumGoodSamples,NumTotalSamples
2015-01-01,Berlin,Germany,13.4167,52.5001,[12.9167 52.0001 13.9167 53.0001],4.186,1.502,4.952,3.534,5.025,3.3,6.875,5.109,33.0,652.0
2015-01-02,Berlin,Germany,13.4167,52.5001,[12.9167 52.0001 13.9167 53.0001],4.186,1.502,4.952,3.534,5.097,3.369,7.226,5.317,33.0,655.0
2015-01-03,Berlin,Germany,13.4167,52.5001,[12.9167 52.0001 13.9167 53.0001],4.186,1.502,4.952,3.534,5.699,3.574,7.916,5.935,33.0,667.0
2015-01-04,Berlin,Germany,13.4167,52.5001,[12.9167 52.0001 13.9167 53.0001],4.186,1.502,4.952,3.534,5.951,3.646,8.009,6.058,33.0,657.0
2015-01-05,Berlin,Germany,13.4167,52.5001,[12.9167 52.0001 13.9167 53.0001],4.78,3.379,5.056,4.132,6.072,3.9,8.133,6.21,22.0,664.0
2015-01-06,Berlin,Germany,13.4167,52.5001,[12.9167 52.0001 13.9167 53.0001],4.598,3.379,5.199,4.342,5.93,3.819,8.031,6.094,37.0,670.0
2015-01-07,Berlin,Germany,13.4167,52.5001,[12.9167 52.0001 13.9167 53.0001],4.598,3.379,5.199,4.342,6.091,3.89,7.977,6.208,37.0,660.0
2015-01-08,Berlin,Germany,13.4167,52.5001,[12.9167 52.0001 13.9167 53.0001],4.598,3.379,5.199,4.342,5.771,3.493,7.558,5.768,37.0,660.0
2015-01-09,Berlin,Germany,13.4167,52.5001,[12.9167 52.0001 13.9167 53.0001],4.858,3.368,7.639,5.039,5.79,3.517,8.276,5.899,45.0,652.0
2015-01-10,Berlin,Germany,13.4167,52.5001,[12.9167 52.0001 13.9167 53.0001],4.858,3.256,7.639,5.04,5.805,3.494,8.286,5.912,43.0,612.0
2015-01-11,Berlin,Germany,13.4167,52.5001,[12.9167 52.0001 13.9167 53.0001],6.076,3.736,8.06,5.905,5.936,3.495,7.803,6.072,76.0,601.0
2015-01-12,Berlin,Germany,13.4167,52.5001,[12.9167 52.0001 13.9167 53.0001],6.609,4.201,8.177,6.474,6.187,3.584,7.98,6.52,63.0,606.0
2015-01-13,Berlin,Germany,13.4167,52.5001,[12.9167 52.0001 13.9167 53.0001],6.609,4.201,8.177,6.474,6.309,3.704,8.189,6.571,63.0,614.0
2015-01-14,Berlin,Germany,13.4167,52.5001,[12.9167 52.0001 13.9167 53.0001],6.609,4.201,8.177,6.474,6.339,3.783,8.239,6.619,63.0,610.0
2015-01-15,Berlin,Germany,13.4167,52.5001,[12.9167 52.0001 13.9167 53.0001],6.609,4.201,8.177,6.474,6.639,4.253,8.283,6.837,63.0,614.0
2015-01-16,Berlin,Germany,13.4167,52.5001,[12.9167 52.0001 13.9167 53.0001],6.609,4.201,8.177,6.474,7.215,4.471,8.819,7.103,63.0,603.0
2015-01-17,Berlin,Germany,13.4167,52.5001,[12.9167 52.0001 13.9167 53.0001],6.609,4.201,8.177,6.474,7.146,4.381,8.71,6.926,63.0,595.0
2015-01-18,Berlin,Germany,13.4167,52.5001,[12.9167 52.0001 13.9167 53.0001],6.609,4.201,8.177,6.474,6.755,4.399,8.138,6.6,63.0,592.0
2015-01-19,Berlin,Germany,13.4167,52.5001,[12.9167 52.0001 13.9167 53.0001],6.609,4.201,8.177,6.474,6.755,4.399,8.138,6.6,63.0,603.0
2015-01-20,Berlin,Germany,13.4167,52.5001,[12.9167 52.0001 13.9167 53.0001],6.609,4.201,8.177,6.474,6.91,4.642,8.287,6.735,63.0,592.0
2015-01-21,Berlin,Germany,13.4167,52.5001,[12.9167 52.0001 13.9167 53.0001],7.125,5.057,8.548,6.886,7.142,4.926,8.481,6.895,48.0,599.0
2015-01-22,Berlin,Germany,13.4167,52.5001,[12.9167 52.0001 13.9167 53.0001],7.125,5.057,8.548,6.886,7.28,5.601,9.237,7.617,48.0,605.0
2015-01-23,Berlin,Germany,13.4167,52.5001,[12.9167 52.0001 13.9167 53.0001],7.125,5.057,8.548,6.886,6.856,4.648,8.966,7.069,48.0,597.0
2015-01-24,Berlin,Germany,13.4167,52.5001,[12.9167 52.0001 13.9167 53.0001],6.609,4.23,8.548,6.807,7.011,4.817,9.727,8.155,33.0,599.0
2015-01-25,Berlin,Germany,13.4167,52.5001,[12.9167 52.0001 13.9167 53.0001],7.958,5.327,9.052,7.75,7.195,4.939,9.631,8.131,46.0,643.0
2015-01-26,Berlin,Germany,13.4167,52.5001,[12.9167 52.0001 13.9167 53.0001],14.31,10.504,16.401,13.309,7.239,5.048,9.931,8.348,13.0,653.0
2015-01-27,Berlin,Germany,13.4167,52.5001,[12.9167 52.0001 13.9167 53.0001],14.31,10.504,16.401,13.309,7.3,4.992,10.365,8.309,13.0,644.0
2015-01-28,Berlin,Germany,13.4167,52.5001,[12.9167 52.0001 13.9167 53.0001],14.31,10.504,16.401,13.309,6.853,4.138,10.405,7.879,13.0,650.0
2015-01-29,Berlin,Germany,13.4167,52.5001,[12.9167 52.0001 13.9167 53.0001],9.052,4.776,14.31,10.0,6.51,3.668,10.288,7.603,18.0,660.0
2015-01-30,Berlin,Germany,13.4167,52.5001,[12.9167 52.0001 13.9167 53.0001],9.052,4.776,14.31,10.0,5.84,4.031,11.295,7.538,18.0,656.0
2015-01-31,Berlin,Germany,13.4167,52.5001,[12.9167 52.0001 13.9167 53.0001],9.052,4.776,14.31,9.907,5.688,3.991,8.953,7.33,19.0,661.0
2015-02-01,Berlin,Germany,13.4167,52.5001,[12.9167 52.0001 13.9167 53.0001],9.052,4.776,14.31,9.907,5.649,3.784,8.453,7.138,19.0,653.0
2015-02-02,Berlin,Germany,13.4167,52.5001,[12.9167 52.0001 13.9167 53.0001],9.052,4.776,14.31,9.907,6.138,4.237,8.582,7.304,19.0,653.0
2015-02-03,Berlin,Germany,13.4167,52.5001,[12.9167 52.0001 13.9167 53.0001],9.052,4.776,14.31,9.907,6.428,4.654,9.076,7.608,19.0,646.0
2015-02-04,Berlin,Germany,13.4167,52.5001,[12.9167 52.0001 13.9167 53.0001],9.052,4.776,14.31,9.907,6.396,4.534,8.891,7.573,19.0,656.0
2015-02-05,Berlin,Germany,13.4167,52.5001,[12.9167 52.0001 13.9167 53.0001],8.743,8.055,10.504,9.319,6.177,4.638,8.836,7.475,32.0,644.0
2015-02-06,Berlin,Germany,13.4167,52.5001,[12.9167 52.0001 13.9167 53.0001],8.067,5.325,9.052,8.344,6.695,4.799,8.978,7.622,37.0,649.0
2015-02-07,Berlin,Germany,13.4167,52.5001,[12.9167 52.0001 13.9167 53.0001],7.926,5.551,9.002,7.845,7.1,4.861,9.327,7.709,76.0,656.0
2015-02-08,Berlin,Germany,13.4167,52.5001,[12.9167 52.0001 13.9167 53.0001],7.926,5.551,9.002,7.845,7.354,4.924,9.107,7.251,76.0,650.0
2015-02-09,Berlin,Germany,13.4167,52.5001,[12.9167 52.0001 13.9167 53.0001],7.765,5.546,8.563,7.341,7.278,5.008,8.841,7.148,63.0,652.0
2015-02-10,Berlin,Germany,13.4167,52.5001,[12.9167 52.0001 13.9167 53.0001],8.055,5.948,9.086,8.225,7.314,5.133,8.928,7.293,90.0,646.0
2015-02-11,Berlin,Germany,13.4167,52.5001,[12.9167 52.0001 13.9167 53.0001],8.055,5.948,9.086,8.225,7.302,5.188,9.045,7.383,90.0,605.0
2015-02-12,Berlin,Germany,13.4167,52.5001,[12.9167 52.0001 13.9167 53.0001],8.47,6.526,10.407,8.698,7.578,5.56,9.369,7.696,124.0,594.0
2015-02-13,Berlin,Germany,13.4167,52.5001,[12.9167 52.0001 13.9167 53.0001],8.47,6.876,10.42,8.808,7.611,5.858,9.411,7.845,120.0,599.0
2015-02-14,Berlin,Germany,13.4167,52.5001,[12.9167 52.0001 13.9167 53.0001],8.471,6.888,10.407,8.809,7.575,5.689,9.309,7.606,126.0,607.0
2015-02-15,Berlin,Germany,13.4167,52.5001,[12.9167 52.0001 13.9167 53.0001],8.471,6.888,10.407,8.817,7.426,5.444,9.235,7.413,125.0,602.0
2015-02-16,Berlin,Germany,13.4167,52.5001,[12.9167 52.0001 13.9167 53.0001],8.471,6.888,10.407,8.817,7.389,5.461,9.201,7.39,125.0,608.0
2015-02-17,Berlin,Germany,13.4167,52.5001,[12.9167 52.0001 13.9167 53.0001],8.471,6.888,10.407,8.817,7.014,4.506,8.913,6.852,125.0,599.0
2015-02-18,Berlin,Germany,13.4167,52.5001,[12.9167 52.0001 13.9167 53.0001],8.471,6.925,10.407,8.814,6.724,3.979,8.776,6.596,126.0,601.0
2015-02-19,Berlin,Germany,13.4167,52.5001,[12.9167 52.0001 13.9167 53.0001],8.423,7.085,10.42,8.754,6.805,4.035,8.811,6.663,159.0,600.0
2015-02-20,Berlin,Germany,13.4167,52.5001,[12.9167 52.0001 13.9167 53.0001],7.874,6.133,10.386,8.296,6.724,4.096,8.976,6.682,159.0,612.0
2015-02-21,Berlin,Germany,13.4167,52.5001,[12.9167 52.0001 13.9167 53.0001],7.533,5.771,10.1,7.869,6.451,3.769,8.67,6.349,171.0,600.0
2015-02-22,Berlin,Germany,13.4167,52.5001,[12.9167 52.0001 13.9167 53.0001],7.533,5.727,10.577,8.012,5.978,3.197,8.39,6.107,132.0,605.0
2015-02-23,Berlin,Germany,13.4167,52.5001,[12.9167 52.0001 13.9167 53.0001],7.533,5.727,10.577,8.012,5.247,3.155,8.49,5.865,132.0,609.0
2015-02-24,Berlin,Germany,13.4167,52.5001,[12.9167 52.0001 13.9167 53.0001],7.533,5.727,10.577,8.012,5.275,3.055,8.342,5.672,132.0,601.0
2015-02-25,Berlin,Germany,13.4167,52.5001,[12.9167 52.0001 13.9167 53.0001],7.279,5.603,9.756,7.517,4.955,2.737,8.044,5.385,105.0,605.0
2015-02-26,Berlin,Germany,13.4167,52.5001,[12.9167 52.0001 13.9167 53.0001],7.279,5.603,9.756,7.503,5.138,3.048,7.86,5.555,106.0,649.0
2015-02-27,Berlin,Germany,13.4167,52.5001,[12.9167 52.0001 13.9167 53.0001],6.231,5.09,8.102,6.586,4.795,2.735,7.424,5.24,72.0,661.0
2015-02-28,Berlin,Germany,13.4167,52.5001,[12.9167 52.0001 13.9167 53.0001],7.0,5.359,8.423,7.125,4.805,2.851,7.01,5.187,98.0,650.0
2015-03-01,Berlin,Germany,13.4167,52.5001,[12.9167 52.0001 13.9167 53.0001],6.028,4.754,8.102,6.517,4.822,2.94,7.144,5.296,104.0,655.0
2015-03-02,Berlin,Germany,13.4167,52.5001,[12.9167 52.0001 13.9167 53.0001],5.771,4.343,8.075,6.19,4.969,3.225,7.243,5.449,134.0,664.0
2015-03-03,Berlin,Germany,13.4167,52.5001,[12.9167 52.0001 13.9167 53.0001],5.771,4.343,8.075,6.19,5.341,3.548,7.77,5.762,134.0,659.0
2015-03-04,Berlin,Germany,13.4167,52.5001,[12.9167 52.0001 13.9167 53.0001],5.771,4.343,8.075,6.19,5.823,4.224,8.083,6.249,134.0,664.0
2015-03-05,Berlin,Germany,13.4167,52.5001,[12.9167 52.0001 13.9167 53.0001],5.771,4.343,8.075,6.189,5.935,4.264,8.061,6.251,133.0,655.0
2015-03-06,Berlin,Germany,13.4167,52.5001,[12.9167 52.0001 13.9167 53.0001],5.274,3.577,6.918,5.449,5.853,3.978,7.823,6.049,102.0,654.0
2015-03-07,Berlin,Germany,13.4167,52.5001,[12.9167 52.0001 13.9167 53.0001],5.036,3.519,7.6,5.38,5.757,3.803,7.775,5.92,89.0,646.0
2015-03-08,Berlin,Germany,13.4167,52.5001,[12.9167 52.0001 13.9167 53.0001],5.308,3.525,8.084,5.775,5.622,3.941,7.798,5.988,72.0,659.0
2015-03-09,Berlin,Germany,13.4167,52.5001,[12.9167 52.0001 13.9167 53.0001],5.167,3.577,7.6,5.618,5.923,4.286,8.304,6.298,93.0,648.0
2015-03-10,Berlin,Germany,13.4167,52.5001,[12.9167 52.0001 13.9167 53.0001],4.754,3.57,6.454,5.358,5.315,2.729,7.174,5.446,103.0,655.0
2015-03-11,Berlin,Germany,13.4167,52.5001,[12.9167 52.0001 13.9167 53.0001],4.408,3.378,5.843,5.011,5.233,2.625,7.142,5.434,141.0,660.0
2015-03-12,Berlin,Germany,13.4167,52.5001,[12.9167 52.0001 13.9167 53.0001],4.408,3.378,5.843,5.011,5.267,2.621,7.151,5.434,141.0,651.0
2015-03-13,Berlin,Germany,13.4167,52.5001,[12.9167 52.0001 13.9167 53.0001],4.419,3.401,5.843,5.017,3.941,2.712,6.523,4.885,140.0,652.0
2015-03-14,Berlin,Germany,13.4167,52.5001,[12.9167 52.0001 13.9167 53.0001],4.419,3.401,5.843,5.017,4.027,2.777,6.405,4.854,140.0,644.0
2015-03-15,Berlin,Germany,13.4167,52.5001,[12.9167 52.0001 13.9167 53.0001],4.072,3.25,5.326,4.268,3.888,2.715,6.182,4.534,113.0,604.0
2015-03-16,Berlin,Germany,13.4167,52.5001,[12.9167 52.0001 13.9167 53.0001],4.751,3.493,6.306,5.184,4.077,2.816,6.527,4.84,133.0,593.0
2015-03-17,Berlin,Germany,13.4167,52.5001,[12.9167 52.0001 13.9167 53.0001],4.751,3.523,6.454,5.299,4.052,2.74,6.467,4.829,103.0,596.0
2015-03-18,Berlin,Germany,13.4167,52.5001,[12.9167 52.0001 13.9167 53.0001],5.71,3.84,8.989,6.772,4.341,2.773,6.764,4.88,142.0,632.0
2015-03-19,Berlin,Germany,13.4167,52.5001,[12.9167 52.0001 13.9167 53.0001],5.71,3.84,8.989,6.772,4.261,2.72,6.603,4.783,142.0,645.0
2015-03-20,Berlin,Germany,13.4167,52.5001,[12.9167 52.0001 13.9167 53.0001],5.71,3.84,8.989,6.772,4.165,2.697,6.223,4.651,142.0,651.0
2015-03-21,Berlin,Germany,13.4167,52.5001,[12.9167 52.0001 13.9167 53.0001],5.75,3.84,8.989,6.832,4.381,2.86,6.546,4.924,140.0,641.0
2015-03-22,Berlin,Germany,13.4167,52.5001,[12.9167 52.0001 13.9167 53.0001],5.75,3.84,8.989,6.832,4.381,2.86,6.546,4.924,140.0,645.0
2015-03-23,Berlin,Germany,13.4167,52.5001,[12.9167 52.0001 13.9167 53.0001],5.75,3.84,8.989,6.829,4.412,2.88,6.521,4.945,141.0,648.0
2015-03-24,Berlin,Germany,13.4167,52.5001,[12.9167 52.0001 13.9167 53.0001],5.981,3.84,9.524,7.172,4.355,2.707,6.462,4.864,120.0,662.0
2015-03-25,Berlin,Germany,13.4167,52.5001,[12.9167 52.0001 13.9167 53.0001],7.472,4.434,10.467,7.793,5.109,3.187,7.293,5.416,110.0,649.0
2015-03-26,Berlin,Germany,13.4167,52.5001,[12.9167 52.0001 13.9167 53.0001],9.109,7.472,11.401,9.786,5.034,3.435,6.926,5.274,72.0,653.0
2015-03-27,Berlin,Germany,13.4167,52.5001,[12.9167 52.0001 13.9167 53.0001],9.109,7.472,11.401,9.786,4.956,3.443,6.705,5.21,72.0,658.0
2015-03-28,Berlin,Germany,13.4167,52.5001,[12.9167 52.0001 13.9167 53.0001],9.109,7.472,11.401,9.786,4.893,3.475,6.731,5.147,72.0,653.0
2015-03-29,Berlin,Germany,13.4167,52.5001,[12.9167 52.0001 13.9167 53.0001],8.957,5.975,10.805,8.582,4.954,3.292,6.766,5.081,82.0,651.0
2015-03-30,Berlin,Germany,13.4167,52.5001,[12.9167 52.0001 13.9167 53.0001],8.605,3.787,10.641,7.641,4.894,2.77,7.14,5.336,91.0,695.0
2015-03-31,Berlin,Germany,13.4167,52.5001,[12.9167 52.0001 13.9167 53.0001],7.472,1.316,11.741,7.467,4.338,2.397,6.701,4.933,59.0,708.0
2015-04-01,Berlin,Germany,13.4167,52.5001,[12.9167 52.0001 13.9167 53.0001],7.472,1.316,11.741,7.467,4.304,2.407,6.573,4.884,59.0,699.0
2015-04-02,Berlin,Germany,13.4167,52.5001,[12.9167 52.0001 13.9167 53.0001],2.448,1.0,3.697,2.359,3.825,2.351,5.721,4.543,28.0,674.0
2015-04-03,Berlin,Germany,13.4167,52.5001,[12.9167 52.0001 13.9167 53.0001],3.266,1.425,4.324,3.434,3.936,2.446,5.827,4.596,66.0,665.0
2015-04-04,Berlin,Germany,13.4167,52.5001,[12.9167 52.0001 13.9167 53.0001],3.266,1.425,4.324,3.434,4.109,2.562,6.163,4.723,66.0,663.0
2015-04-05,Berlin,Germany,13.4167,52.5001,[12.9167 52.0001 13.9167 53.0001],3.547,1.633,4.402,3.516,3.938,2.393,5.834,4.516,78.0,691.0
2015-04-06,Berlin,Germany,13.4167,52.5001,[12.9167 52.0001 13.9167 53.0001],3.547,1.633,4.402,3.516,3.927,2.386,5.802,4.493,79.0,682.0
2015-04-07,Berlin,Germany,13.4167,52.5001,[12.9167 52.0001 13.9167 53.0001],3.688,1.8,4.588,3.644,3.927,2.4,5.759,4.479,84.0,714.0
2015-04-08,Berlin,Germany,13.4167,52.5001,[12.9167 52.0001 13.9167 53.0001],4.045,2.591,4.774,3.869,4.04,2.671,5.758,4.528,126.0,741.0
2015-04-09,Berlin,Germany,13.4167,52.5001,[12.9167 52.0001 13.9167 53.0001],3.589,1.8,4.613,3.475,3.844,2.417,5.544,4.352,138.0,775.0
2015-04-10,Berlin,Germany,13.4167,52.5001,[12.9167 52.0001 13.9167 53.0001],3.589,1.8,4.613,3.475,3.898,2.505,5.518,4.332,138.0,763.0
2015-04-11,Berlin,Germany,13.4167,52.5001,[12.9167 52.0001 13.9167 53.0001],3.589,1.8,4.613,3.475,3.965,2.594,5.552,4.327,138.0,767.0
2015-04-12,Berlin,Germany,13.4167,52.5001,[12.9167 52.0001 13.9167 53.0001],3.649,1.854,4.613,3.489,3.806,2.448,5.197,4.204,145.0,770.0
2015-04-13,Berlin,Germany,13.4167,52.5001,[12.9167 52.0001 13.9167 53.0001],3.688,2.299,4.684,3.697,3.768,2.532,5.299,4.231,135.0,766.0
2015-04-14,Berlin,Germany,13.4167,52.5001,[12.9167 52.0001 13.9167 53.0001],3.683,2.175,4.613,3.639,3.322,2.222,4.724,3.637,144.0,767.0
2015-04-15,Berlin,Germany,13.4167,52.5001,[12.9167 52.0001 13.9167 53.0001],3.688,2.175,4.684,3.702,3.328,2.17,4.691,3.64,146.0,759.0
2015-04-16,Berlin,Germany,13.4167,52.5001,[12.9167 52.0001 13.9167 53.0001],3.688,2.175,4.684,3.702,3.303,2.125,4.822,3.63,146.0,719.0
2015-04-17,Berlin,Germany,13.4167,52.5001,[12.9167 52.0001 13.9167 53.0001],4.221,2.299,6.703,4.841,3.469,2.119,5.441,3.864,170.0,772.0
2015-04-18,Berlin,Germany,13.4167,52.5001,[12.9167 52.0001 13.9167 53.0001],4.221,2.299,6.835,4.849,3.303,2.036,5.225,3.721,132.0,775.0
2015-04-19,Berlin,Germany,13.4167,52.5001,[12.9167 52.0001 13.9167 53.0001],4.221,2.299,6.835,4.849,3.329,2.013,5.195,3.671,132.0,813.0
2015-04-20,Berlin,Germany,13.4167,52.5001,[12.9167 52.0001 13.9167 53.0001],4.221,2.299,8.093,4.945,3.332,2.026,5.476,3.712,120.0,805.0
2015-04-21,Berlin,Germany,13.4167,52.5001,[12.9167 52.0001 13.9167 53.0001],4.221,2.299,8.093,4.946,3.352,2.042,5.475,3.727,119.0,808.0
2015-04-22,Berlin,Germany,13.4167,52.5001,[12.9167 52.0001 13.9167 53.0001],4.209,2.044,8.18,4.946,3.298,1.923,5.406,3.641,113.0,761.0
2015-04-23,Berlin,Germany,13.4167,52.5001,[12.9167 52.0001 13.9167 53.0001],3.291,1.411,8.935,5.138,3.091,1.899,5.247,3.562,71.0,727.0
2015-04-24,Berlin,Germany,13.4167,52.5001,[12.9167 52.0001 13.9167 53.0001],5.66,2.044,9.0,6.161,3.372,1.997,4.977,3.618,78.0,699.0
2015-04-25,Berlin,Germany,13.4167,52.5001,[12.9167 52.0001 13.9167 53.0001],5.66,2.044,9.0,6.161,3.376,1.901,5.179,3.649,78.0,713.0
2015-04-26,Berlin,Germany,13.4167,52.5001,[12.9167 52.0001 13.9167 53.0001],3.802,1.836,8.616,5.171,3.181,1.955,5.323,3.634,107.0,703.0
2015-04-27,Berlin,Germany,13.4167,52.5001,[12.9167 52.0001 13.9167 53.0001],3.63,1.849,8.51,4.922,3.207,1.946,5.529,3.698,107.0,709.0
2015-04-28,Berlin,Germany,13.4167,52.5001,[12.9167 52.0001 13.9167 53.0001],3.63,1.849,8.51,4.922,3.14,1.891,5.492,3.675,107.0,714.0
2015-04-29,Berlin,Germany,13.4167,52.5001,[12.9167 52.0001 13.9167 53.0001],4.119,2.331,8.935,5.609,3.37,2.082,5.335,3.775,89.0,706.0
2015-04-30,Berlin,Germany,13.4167,52.5001,[12.9167 52.0001 13.9167 53.0001],4.007,2.331,8.672,5.519,3.438,2.237,5.457,3.883,87.0,710.0
2015-05-01,Berlin,Germany,13.4167,52.5001,[12.9167 52.0001 13.9167 53.0001],4.007,2.331,8.672,5.51,3.299,2.107,5.38,3.78,93.0,754.0
2015-05-02,Berlin,Germany,13.4167,52.5001,[12.9167 52.0001 13.9167 53.0001],2.791,1.836,3.802,2.913,3.137,2.098,4.519,3.338,61.0,712.0
2015-05-03,Berlin,Germany,13.4167,52.5001,[12.9167 52.0001 13.9167 53.0001],2.791,1.836,3.802,2.913,3.308,2.213,4.68,3.487,61.0,703.0
2015-05-04,Berlin,Germany,13.4167,52.5001,[12.9167 52.0001 13.9167 53.0001],2.432,1.369,3.63,2.667,3.12,2.147,4.563,3.392,68.0,684.0
2015-05-05,Berlin,Germany,13.4167,52.5001,[12.9167 52.0001 13.9167 53.0001],2.432,1.369,3.63,2.667,3.214,2.189,4.555,3.418,68.0,672.0
2015-05-06,Berlin,Germany,13.4167,52.5001,[12.9167 52.0001 13.9167 53.0001],2.432,1.369,3.63,2.667,3.136,2.165,4.518,3.38,68.0,673.0
2015-05-07,Berlin,Germany,13.4167,52.5001,[12.9167 52.0001 13.9167 53.0001],2.432,1.369,3.63,2.667,3.276,2.205,4.52,3.466,68.0,697.0
2015-05-08,Berlin,Germany,13.4167,52.5001,[12.9167 52.0001 13.9167 53.0001],2.432,1.369,3.63,2.667,3.262,2.181,4.571,3.451,68.0,688.0
2015-05-09,Berlin,Germany,13.4167,52.5001,[12.9167 52.0001 13.9167 53.0001],2.331,1.29,3.582,2.554,3.349,2.17,4.589,3.415,49.0,725.0
2015-05-10,Berlin,Germany,13.4167,52.5001,[12.9167 52.0001 13.9167 53.0001],2.331,1.29,3.63,2.583,3.402,2.259,4.613,3.474,50.0,742.0
2015-05-11,Berlin,Germany,13.4167,52.5001,[12.9167 52.0001 13.9167 53.0001],2.326,1.29,3.582,2.517,3.263,2.345,4.658,3.471,24.0,777.0
2015-05-12,Berlin,Germany,13.4167,52.5001,[12.9167 52.0001 13.9167 53.0001],2.656,1.369,3.518,2.687,3.269,2.334,4.593,3.428,38.0,765.0
2015-05-13,Berlin,Germany,13.4167,52.5001,[12.9167 52.0001 13.9167 53.0001],2.656,1.369,3.518,2.687,3.187,2.295,4.542,3.354,38.0,788.0
2015-05-14,Berlin,Germany,13.4167,52.5001,[12.9167 52.0001 13.9167 53.0001],2.656,1.369,3.518,2.687,3.256,2.293,4.564,3.423,38.0,794.0
2015-05-15,Berlin,Germany,13.4167,52.5001,[12.9167 52.0001 13.9167 53.0001],2.656,1.369,3.518,2.687,3.3,2.274,4.607,3.428,38.0,801.0
2015-05-16,Berlin,Germany,13.4167,52.5001,[12.9167 52.0001 13.9167 53.0001],2.656,1.369,3.257,2.544,3.413,2.294,4.614,3.436,34.0,803.0
2015-05-17,Berlin,Germany,13.4167,52.5001,[12.9167 52.0001 13.9167 53.0001],2.052,1.061,2.867,2.091,3.347,2.275,4.614,3.477,72.0,812.0
2015-05-18,Berlin,Germany,13.4167,52.5001,[12.9167 52.0001 13.9167 53.0001],2.052,1.061,2.867,2.091,3.252,2.164,4.331,3.359,72.0,772.0
2015-05-19,Berlin,Germany,13.4167,52.5001,[12.9167 52.0001 13.9167 53.0001],2.094,1.061,2.867,2.212,3.386,2.156,4.509,3.449,65.0,786.0
2015-05-20,Berlin,Germany,13.4167,52.5001,[12.9167 52.0001 13.9167 53.0001],2.094,1.061,2.867,2.212,3.338,2.045,4.368,3.379,65.0,791.0
2015-05-21,Berlin,Germany,13.4167,52.5001,[12.9167 52.0001 13.9167 53.0001],2.102,1.335,3.123,2.445,3.386,2.182,4.629,3.486,76.0,827.0
2015-05-22,Berlin,Germany,13.4167,52.5001,[12.9167 52.0001 13.9167 53.0001],2.102,1.335,3.123,2.445,3.207,2.111,4.597,3.408,76.0,820.0
2015-05-23,Berlin,Germany,13.4167,52.5001,[12.9167 52.0001 13.9167 53.0001],2.541,1.391,4.252,2.89,3.346,1.98,4.667,3.357,88.0,864.0
2015-05-24,Berlin,Germany,13.4167,52.5001,[12.9167 52.0001 13.9167 53.0001],2.541,1.391,4.252,2.89,3.434,2.042,4.713,3.396,88.0,843.0
2015-05-25,Berlin,Germany,13.4167,52.5001,[12.9167 52.0001 13.9167 53.0001],2.541,1.353,4.252,2.873,3.2,1.731,4.611,3.175,87.0,863.0
2015-05-26,Berlin,Germany,13.4167,52.5001,[12.9167 52.0001 13.9167 53.0001],1.99,0.756,3.11,2.28,2.881,1.448,4.328,2.982,109.0,886.0
2015-05-27,Berlin,Germany,13.4167,52.5001,[12.9167 52.0001 13.9167 53.0001],1.468,0.573,3.052,2.094,2.781,1.452,4.257,2.938,88.0,920.0
2015-05-28,Berlin,Germany,13.4167,52.5001,[12.9167 52.0001 13.9167 53.0001],1.536,0.591,3.052,2.05,2.708,1.487,4.32,2.904,119.0,939.0
2015-05-29,Berlin,Germany,13.4167,52.5001,[12.9167 52.0001 13.9167 53.0001],1.516,0.711,2.683,1.969,2.71,1.373,4.153,2.842,129.0,962.0
2015-05-30,Berlin,Germany,13.4167,52.5001,[12.9167 52.0001 13.9167 53.0001],1.574,0.929,2.731,2.027,2.623,1.409,4.113,2.812,151.0,999.0
2015-05-31,Berlin,Germany,13.4167,52.5001,[12.9167 52.0001 13.9167 53.0001],1.543,0.916,2.73,2.017,2.537,1.42,4.067,2.82,149.0,1009.0
2015-06-01,Berlin,Germany,13.4167,52.5001,[12.9167 52.0001 13.9167 53.0001],1.574,0.979,2.782,2.066,2.466,1.313,4.009,2.654,123.0,1030.0
2015-06-02,Berlin,Germany,13.4167,52.5001,[12.9167 52.0001 13.9167 53.0001],1.574,0.66,2.782,2.034,2.34,1.135,3.918,2.538,139.0,1098.0
2015-06-03,Berlin,Germany,13.4167,52.5001,[12.9167 52.0001 13.9167 53.0001],1.574,0.732,2.782,2.034,2.148,1.046,3.63,2.422,140.0,1133.0
2015-06-04,Berlin,Germany,13.4167,52.5001,[12.9167 52.0001 13.9167 53.0001],1.748,1.052,3.369,2.321,2.002,0.81,3.671,2.292,175.0,1183.0
2015-06-05,Berlin,Germany,13.4167,52.5001,[12.9167 52.0001 13.9167 53.0001],1.859,1.054,3.66,2.431,1.783,0.67,3.492,2.131,175.0,1174.0
2015-06-06,Berlin,Germany,13.4167,52.5001,[12.9167 52.0001 13.9167 53.0001],1.871,1.088,3.66,2.464,1.72,0.542,3.33,2.024,180.0,1198.0
2015-06-07,Berlin,Germany,13.4167,52.5001,[12.9167 52.0001 13.9167 53.0001],1.764,1.054,3.567,2.267,1.502,0.446,3.122,1.819,168.0,1174.0
2015-06-08,Berlin,Germany,13.4167,52.5001,[12.9167 52.0001 13.9167 53.0001],1.764,1.019,3.59,2.24,1.35,0.428,2.78,1.656,185.0,1176.0
2015-06-09,Berlin,Germany,13.4167,52.5001,[12.9167 52.0001 13.9167 53.0001],1.764,1.019,3.59,2.24,1.376,0.29,2.788,1.617,185.0,1127.0
2015-06-10,Berlin,Germany,13.4167,52.5001,[12.9167 52.0001 13.9167 53.0001],1.882,1.184,3.66,2.401,1.399,0.339,2.767,1.639,178.0,1127.0
2015-06-11,Berlin,Germany,13.4167,52.5001,[12.9167 52.0001 13.9167 53.0001],1.882,1.184,3.66,2.401,1.307,0.256,2.622,1.55,178.0,1166.0
2015-06-12,Berlin,Germany,13.4167,52.5001,[12.9167 52.0001 13.9167 53.0001],1.94,1.253,3.66,2.501,1.262,0.172,2.564,1.477,147.0,1161.0
2015-06-13,Berlin,Germany,13.4167,52.5001,[12.9167 52.0001 13.9167 53.0001],2.096,1.253,3.837,2.667,1.266,0.155,2.573,1.485,139.0,1189.0
2015-06-14,Berlin,Germany,13.4167,52.5001,[12.9167 52.0001 13.9167 53.0001],2.122,1.248,3.842,2.702,1.238,0.13,2.503,1.397,117.0,1163.0
2015-06-15,Berlin,Germany,13.4167,52.5001,[12.9167 52.0001 13.9167 53.0001],2.122,1.248,3.842,2.702,1.237,0.131,2.286,1.3,117.0,1206.0
2015-06-16,Berlin,Germany,13.4167,52.5001,[12.9167 52.0001 13.9167 53.0001],2.141,1.371,4.679,2.859,1.293,0.181,2.495,1.4,105.0,1175.0
2015-06-17,Berlin,Germany,13.4167,52.5001,[12.9167 52.0001 13.9167 53.0001],2.242,1.443,4.994,2.966,1.334,0.293,2.604,1.427,89.0,1201.0
2015-06-18,Berlin,Germany,13.4167,52.5001,[12.9167 52.0001 13.9167 53.0001],2.299,1.371,4.994,2.956,1.307,0.233,2.68,1.442,104.0,1161.0
2015-06-19,Berlin,Germany,13.4167,52.5001,[12.9167 52.0001 13.9167 53.0001],2.122,1.086,3.842,2.676,1.39,0.316,2.521,1.422,69.0,1062.0
2015-06-20,Berlin,Germany,13.4167,52.5001,[12.9167 52.0001 13.9167 53.0001],1.515,0.653,3.369,2.136,1.34,0.284,2.429,1.384,58.0,1066.0
2015-06-21,Berlin,Germany,13.4167,52.5001,[12.9167 52.0001 13.9167 53.0001],1.163,0.429,2.096,1.564,1.364,0.311,2.379,1.369,64.0,1039.0
2015-06-22,Berlin,Germany,13.4167,52.5001,[12.9167 52.0001 13.9167 53.0001],1.339,0.607,2.872,1.747,1.459,0.507,2.468,1.479,76.0,1080.0
2015-06-23,Berlin,Germany,13.4167,52.5001,[12.9167 52.0001 13.9167 53.0001],1.299,0.741,2.122,1.686,1.467,0.603,2.412,1.507,59.0,1075.0